Location: Axtheid
(49.6213°N, 11.8205°E)
Time: 13:03:32
(UTC+00:00)

SL-08 RB Rocket - Pass Details

Date: 24 January 2021
Orbit: 647 x 684 km, 97.8° (Epoch: 26 February)

Event Time Altitude Azimuth Distance (km) Brightness Sun altitude
Exits shadow 18:32:24 68° 189° (S) 710 3.7 -25.2°
Maximum altitude 18:32:57 81° 257° (WSW) 669 3.6 -25.3°
Drops below altitude 10° 18:37:28 10° 345° (NNW) 2,067 6.4 -26.0°
Sets 18:39:41 0° 346° (NNW) 2,979 7.2 -26.4°
